Location: Croagnes
(43.9363°N, 5.3265°E)
Time: 21:56:36
(UTC+00:00)

Meteor 1-16 Rocket - Pass Details

Date: 06 October 2020
Orbit: 790 x 908 km, 81.2° (Epoch: 22 October)

Event Time Altitude Azimuth Distance (km) Brightness Sun altitude
Rises 05:05:10 0° 0° (N) 3,399 7.4 -7.6°
Reaches altitude 10° 05:08:09 10° 16° (NNE) 2,439 6.8 -7.0°
Maximum altitude 05:12:24 22° 67° (ENE) 1,695 6.8 -6.3°
Drops below altitude 10° 05:16:33 10° 118° (ESE) 2,377 7.8 -5.5°
Sets 05:19:25 0° 133° (SE) 3,290 8.2 -5.0°
